Location: Delettes
(50.6178°N, 2.2123°E)
Time: 23:13:58
(UTC+00:00)

MOS 1 - Pass Details

Date: 27 February 2020
Orbit: 879 x 891 km, 99.2° (Epoch: 05 April)

Event Time Altitude Azimuth Distance (km) Brightness Sun altitude
Rises 18:47:00 0° 149° (SSE) 3,476 7.1 -13.3°
Reaches altitude 10° 18:49:25 10° 146° (SSE) 2,539 6.3 -13.6°
Maximum altitude 18:54:57 60° 68° (ENE) 1,004 4.3 -14.5°
Drops below altitude 10° 19:00:31 10° 350° (N) 2,549 6.9 -15.4°
Sets 19:02:57 0° 347° (NNW) 3,491 7.7 -15.8°
